Date String (YYYY-MM-DD hh:mm:ss) UTC,Instrument flags,Ambient pressure (hPa),Sample flow (lpm),Bypass flow (lpm),Sample temperature (°C),Ambient temperature (°C),ASC tube jacket temperature (°C),LED temperature (°C),Box temperature (°C),Sample RH (%),Span deviation,Mass concentration (μg/m³),Mass concentration (μg/m³),Mass concentration (μg/m³)
DateTimeUTC,F1_M11,P_M11,Q1_M11,Q2_M11,T1_M11,T2_M11,T3_M11,T4_M11,T5_M11,U1_M11,ZSPAN_M11,X0_M11,X2_M11,X1_M11
2021-11-28 16:00:00,,0830.9,5.00,0.00,23.9,23.2,00.0,32.8,25.7,14.2,0000.0,0007.95,0002.06,0001.17
2021-11-28 16:01:00,,0830.9,5.00,0.00,23.9,23.2,00.0,32.8,25.7,14.1,0000.0,0008.32,0002.01,0001.15
2021-11-28 16:02:00,,0831.0,5.00,0.00,23.9,23.2,00.0,32.8,25.7,14.1,0000.0,0008.65,0001.96,0001.12
2021-11-28 16:03:00,,0830.9,4.99,0.00,23.9,23.2,00.0,32.8,25.7,14.1,0000.0,0008.41,0001.90,0001.09
2021-11-28 16:04:00,,0830.9,5.01,0.00,23.9,23.3,00.0,32.9,25.8,14.2,0000.0,0007.32,0001.87,0001.07
2021-11-28 16:05:00,,0830.8,4.99,0.00,24.0,23.3,00.0,32.9,25.9,14.1,0000.0,0007.34,0001.87,0001.06
2021-11-28 16:06:00,,0830.7,4.99,0.00,24.0,23.3,00.0,32.9,25.9,14.2,0000.0,0007.39,0001.78,0001.04
2021-11-28 16:07:00,,0830.8,5.00,0.00,24.0,23.3,00.0,32.9,25.9,14.1,0000.0,0007.21,0001.77,0001.04
2021-11-28 16:08:00,,0830.8,5.00,0.00,24.0,23.3,00.0,32.9,25.9,14.1,0000.0,0007.91,0001.81,0001.02
2021-11-28 16:09:00,,0830.8,5.00,0.00,24.0,23.3,00.0,32.9,25.9,14.0,0000.0,0008.11,0001.84,0001.01
2021-11-28 16:10:00,,0830.8,5.01,0.00,24.0,23.3,00.0,32.9,25.9,14.0,0000.0,0008.30,0001.86,0001.01
2021-11-28 16:11:00,,0830.7,4.99,0.00,24.1,23.3,00.0,33.0,25.9,14.1,0000.0,0008.65,0001.91,0001.01
2021-11-28 16:12:00,,0830.8,5.00,0.00,24.1,23.4,00.0,33.0,26.0,14.1,0000.0,0008.55,0001.93,0000.99
2021-11-28 16:13:00,,0830.9,5.00,0.00,24.1,23.4,00.0,33.0,26.0,14.0,0000.0,0008.14,0001.93,0000.99
2021-11-28 16:14:00,,0830.9,4.97,0.00,24.1,23.4,00.0,33.0,26.0,14.0,0000.0,0007.91,0001.95,0000.99
2021-11-28 16:15:00,,0830.9,5.01,0.00,24.1,23.4,00.0,33.0,26.0,14.0,0000.0,0007.97,0001.95,0000.97
2021-11-28 16:16:00,,0830.9,4.99,0.00,24.2,23.4,00.0,33.0,26.0,14.2,0000.0,0008.00,0001.95,0000.97
2021-11-28 16:17:00,,0830.9,5.01,0.00,24.2,23.5,00.0,33.1,26.1,14.6,0000.0,0007.77,0002.09,0001.00
2021-11-28 16:18:00,,0830.8,4.99,0.00,24.2,23.5,00.0,33.1,26.1,14.6,0000.0,0007.71,0002.16,0001.04
2021-11-28 16:19:00,,0830.8,5.01,0.00,24.2,23.5,00.0,33.1,26.1,14.6,0000.0,0007.36,0002.20,0001.09
2021-11-28 16:20:00,,0830.7,5.00,0.00,24.2,23.5,00.0,33.1,26.1,14.6,0000.0,0006.96,0002.22,0001.13
2021-11-28 16:21:00,,0830.7,5.00,0.00,24.2,23.5,00.0,33.1,26.1,14.6,0000.0,0006.88,0002.26,0001.16
2021-11-28 16:22:00,,0830.8,5.01,0.00,24.3,23.6,00.0,33.1,26.2,14.5,0000.0,0006.54,0002.23,0001.18
2021-11-28 16:23:00,,0830.8,4.99,0.00,24.3,23.6,00.0,33.2,26.2,14.6,0000.0,0006.82,0002.25,0001.22
2021-11-28 16:24:00,,0830.9,5.00,0.00,24.3,23.6,00.0,33.2,26.2,14.6,0000.0,0006.42,0002.26,0001.27
2021-11-28 16:25:00,,0830.9,5.00,0.00,24.3,23.6,00.0,33.2,26.3,14.6,0000.0,0006.50,0002.29,0001.30
2021-11-28 16:26:00,,0830.9,5.00,0.00,24.3,23.6,00.0,33.2,26.3,14.6,0000.0,0006.82,0002.36,0001.35
2021-11-28 16:27:00,,0830.9,5.00,0.00,24.4,23.6,00.0,33.2,26.3,14.5,0000.0,0006.86,0002.43,0001.39
2021-11-28 16:28:00,,0830.9,5.01,0.00,24.4,23.6,00.0,33.2,26.3,14.5,0000.0,0006.70,0002.41,0001.40
2021-11-28 16:29:00,,0830.9,4.99,0.00,24.4,23.7,00.0,33.3,26.3,14.5,0000.0,0006.57,0002.43,0001.40
2021-11-28 16:30:00,,0830.8,5.01,0.00,24.4,23.7,00.0,33.3,26.3,14.5,0000.0,0006.22,0002.39,0001.39
2021-11-28 16:31:00,,0830.8,4.99,0.00,24.4,23.7,00.0,33.3,26.3,14.4,0000.0,0006.81,0002.35,0001.38
2021-11-28 16:32:00,,0830.7,5.01,0.00,24.4,23.7,00.0,33.3,26.3,14.4,0000.0,0007.06,0002.32,0001.38
2021-11-28 16:33:00,,0830.8,4.99,0.00,24.4,23.7,00.0,33.3,26.3,14.4,0000.0,0007.02,0002.34,0001.38
2021-11-28 16:34:00,,0830.7,4.99,0.00,24.4,23.7,00.0,33.3,26.4,14.4,0000.0,0006.25,0002.32,0001.39
2021-11-28 16:35:00,,0830.8,5.00,0.00,24.5,23.7,00.0,33.4,26.4,14.3,0000.0,0006.61,0002.31,0001.38
2021-11-28 16:36:00,,0830.9,5.01,0.00,24.5,23.7,00.0,33.4,26.4,14.4,0000.0,0006.80,0002.32,0001.38
2021-11-28 16:37:00,,0830.9,4.99,0.00,24.5,23.7,00.0,33.4,26.4,14.4,0000.0,0006.58,0002.31,0001.37
2021-11-28 16:38:00,,0830.8,5.01,0.00,24.5,23.8,00.0,33.4,26.4,14.4,0000.0,0006.74,0002.36,0001.38
2021-11-28 16:39:00,,0830.8,5.00,0.00,24.5,23.8,00.0,33.4,26.4,14.4,0000.0,0006.87,0002.41,0001.39
2021-11-28 16:40:00,,0830.8,4.99,0.00,24.5,23.8,00.0,33.4,26.4,14.4,0000.0,0007.58,0002.42,0001.41
2021-11-28 16:41:00,,0830.7,4.99,0.00,24.5,23.8,00.0,33.5,26.4,14.4,0000.0,0007.60,0002.43,0001.43
2021-11-28 16:42:00,,0830.6,5.00,0.00,24.5,23.8,00.0,33.5,26.4,14.4,0000.0,0007.33,0002.49,0001.44
2021-11-28 16:43:00,,0830.6,5.00,0.00,24.6,23.8,00.0,33.5,26.5,14.4,0000.0,0006.59,0002.49,0001.47
2021-11-28 16:44:00,,0830.6,5.01,0.00,24.6,23.8,00.0,33.5,26.5,14.5,0000.0,0007.08,0002.53,0001.48
2021-11-28 16:45:00,,0830.6,5.00,0.00,24.6,23.8,00.0,33.5,26.5,14.5,0000.0,0007.69,0002.58,0001.50
2021-11-28 16:46:00,,0830.6,4.99,0.00,24.6,23.8,00.0,33.5,26.5,14.5,0000.0,0008.42,0002.66,0001.52
2021-11-28 16:47:00,,0830.7,5.01,0.00,24.6,23.8,00.0,33.5,26.5,14.4,0000.0,0008.13,0002.66,0001.54
2021-11-28 16:48:00,,0830.6,5.00,0.00,24.6,23.8,00.0,33.5,26.5,14.4,0000.0,0008.12,0002.69,0001.56
2021-11-28 16:49:00,,0830.6,5.01,0.00,24.6,23.8,00.0,33.5,26.5,14.4,0000.0,0008.23,0002.67,0001.57
2021-11-28 16:50:00,,0830.6,4.99,0.00,24.6,23.9,00.0,33.5,26.5,14.4,0000.0,0008.77,0002.64,0001.58
2021-11-28 16:51:00,,0830.6,5.00,0.00,24.6,23.9,00.0,33.6,26.6,14.3,0000.0,0008.98,0002.60,0001.59
2021-11-28 16:52:00,,0830.6,4.99,0.00,24.7,23.9,00.0,33.6,26.6,14.4,0000.0,0009.43,0002.61,0001.58
2021-11-28 16:53:00,,0830.6,5.01,0.00,24.7,23.9,00.0,33.6,26.6,14.3,0000.0,0010.24,0002.59,0001.59
2021-11-28 16:54:00,,0830.6,5.00,0.00,24.7,23.9,00.0,33.6,26.6,14.4,0000.0,0010.85,0002.66,0001.59
2021-11-28 16:55:00,,0830.6,5.00,0.00,24.7,23.9,00.0,33.6,26.6,14.4,0000.0,0010.76,0002.76,0001.61
2021-11-28 16:56:00,,0830.6,4.99,0.00,24.7,24.0,00.0,33.6,26.6,14.4,0000.0,0010.32,0002.77,0001.62
2021-11-28 16:57:00,,0830.6,5.02,0.00,24.7,24.0,00.0,33.6,26.6,14.3,0000.0,0010.14,0002.82,0001.63
2021-11-28 16:58:00,,0830.6,5.00,0.00,24.7,24.0,00.0,33.6,26.7,14.3,0000.0,0010.17,0002.87,0001.64
2021-11-28 16:59:00,,0830.5,4.99,0.00,24.8,24.0,00.0,33.7,26.7,14.3,0000.0,0010.26,0002.92,0001.66
